Terminal Aerodrome Forecast
Issued by NWS Mt. Holly, NJ

Home | Current Version | Previous Version | Text Only | Print | Product List | Glossary On
Versions: 1 2 3 4 5 6 7 8 9 10 11 12 13 14 15 16 17 18 19 20 21 22 23 24 25 26 27 28 29 30 31
000
FTUS41 KPHI 281700
TAFPHL
TAF
KPHL 281731Z 2818/2924 28015G25KT P6SM SCT040 BKN090
      TEMPO 2820/2824 -SHRA BKN035
     FM290000 29012G20KT P6SM SCT045 BKN120
     FM290400 30008KT P6SM SCT200
     FM291500 29008KT P6SM SCT050=

USA.gov is the U.S. government's official web portal to all federal, state and local government web resources and services.